Location: Wien
(48.2082°N, 16.3738°E)
Time: 06:28:08
(UTC+02:00)

S-56A Canister/Altair - Visible Passes

Search period start: 25 May 2024 00:00
Search period end: 04 June 2024 00:00
Orbit: 638 x 2488 km, 38.9° (Epoch: 24 May)

Date Brightness Start Highest point End Pass type
(mag) Time Alt. Az. Time Alt. Az. Time Alt. Az.
25 May 11.4 03:32:46 10° SSE 03:38:11 13° SE 03:43:12 10° ESE visible
26 May 11.4 03:00:42 10° SSE 03:04:17 11° SE 03:07:43 10° ESE visible
27 May 10.8 04:22:48 10° SSW 04:34:11 29° SSE 04:43:38 10° E visible
28 May 10.9 03:49:00 10° SSW 04:00:08 27° SE 04:09:41 10° E visible
29 May 10.9 03:15:21 10° S 03:26:04 25° SE 03:35:35 10° E visible
30 May 11.0 02:42:57 12° S 02:52:01 22° SE 03:01:19 10° E visible
31 May 11.1 02:10:41 13° SSE 02:17:59 20° SE 02:26:50 10° E visible
31 May 10.5 04:08:56 10° SW 04:22:17 41° SSE 04:33:29 10° E visible
01 Jun 11.1 01:38:20 14° SSE 01:43:58 18° SE 01:52:04 10° E visible
01 Jun 10.5 03:35:39 12° SSW 03:48:04 39° SSE 03:59:34 10° E visible
02 Jun 11.1 01:05:55 13° SSE 01:10:00 15° SE 01:16:54 10° ESE visible
02 Jun 10.5 03:03:13 16° SSW 03:13:51 37° SSE 03:25:33 10° E visible
03 Jun 11.2 00:33:26 12° SE 00:36:05 12° SE 00:41:05 10° ESE visible
03 Jun 10.6 02:30:43 19° SSW 02:39:38 34° SSE 02:51:25 10° E visible
